Miscellaneous Local Product
Issued by NWS Hastings, NE

Home | Current Version | Previous Version | Graphics & Text | Print | Product List | Glossary On
Versions: 1 2 3 4 5 6 7 8 9 10 11 12 13 14 15 16 17 18 19 20 21 22 23 24 25 26 27 28 29 30 31 32 33 34 35 36 37 38 39 40 41 42 43 44 45 46 47 48 49 50
000
AXUS43 KGID 190802
MISGRI

GID CWA HOURLY WEATHER ROUNDUP
NATIONAL WEATHER SERVICE HASTINGS NE
200 AM CST SUN FEB 19 2017

NOTE: "FAIR" INDICATES FEW OR NO CLOUDS BELOW 12,000 FEET WITH NO
SIGNIFICANT WEATHER AND/OR OBSTRUCTIONS TO VISIBILITY.

...SOUTH CENTRAL NEBRASKA...

CITY           SKY/WX    TMP DP  RH WIND       PRES   REMARKS
GRAND ISLAND   CLEAR     44  38  79 S10       29.80R
HASTINGS       PTCLDY    47  39  74 S5        29.81R
KEARNEY        PTCLDY    46  37  71 S7        29.78S
ORD            PTCLDY    42  30  62 SE3       29.76S
YORK           PTCLDY    46  37  71 S8        29.81S
AURORA         CLOUDY    44  36  74 S7        29.80R
LEXINGTON      PTCLDY    46  37  73 S13       29.75F
HOLDREGE       PTCLDY    46  38  74 S12       29.78R
HEBRON         MOCLDY    51  45  78 S7        29.82R

...NEBRASKA PANHANDLE...

CITY           SKY/WX    TMP DP  RH WIND       PRES   REMARKS
CHADRON        CLOUDY    45  31  58 S13       29.63F
ALLIANCE       CLOUDY    39  31  72 SE8       29.64F WCI  33
SCOTTSBLUFF    CLOUDY    41  29  62 E6        29.65F
SIDNEY         CLOUDY    45  26  47 S12       29.65F

...WESTERN AND NORTH CENTRAL NEBRASKA...

CITY           SKY/WX    TMP DP  RH WIND       PRES   REMARKS
VALENTINE      CLOUDY    44  32  62 S6        29.69F
AINSWORTH      CLOUDY    43  34  69 S9        29.71F
ONEILL         PTCLDY    43  33  69 S9        29.75F
BROKEN BOW     PTCLDY    31  27  85 CALM      29.74F
IMPERIAL       PTCLDY    51  30  44 S16       29.71S
NORTH PLATTE   PTCLDY    38  32  79 E8        29.73S WCI  32
MCCOOK         PTCLDY    50  37  61 S10       29.74S

...EASTERN NEBRASKA...

CITY           SKY/WX    TMP DP  RH WIND       PRES   REMARKS
NORFOLK        PTCLDY    40  32  73 SE9       29.78F WCI  34
SO SIOUX CITY  PTCLDY    36  32  85 SE8       29.82F WCI  30
TEKAMAH        MOCLDY    37  33  85 CALM      29.84S
COLUMBUS       CLOUDY    39  30  70 CALM      29.81S
ALBION         PTCLDY    41  32  69 SE6       29.79S
OMAHA EPPLEY   CLOUDY    42  32  67 S5        29.83F
OFFUTT AFB     CLEAR     36  35  94 CALM      29.83S
MILLARD        PTCLDY    41  35  77 CALM      29.83S
LINCOLN        PTCLDY    37  30  75 N3        29.84R
NEBRASKA CITY  CLEAR     45  31  58 S9        29.84S
BEATRICE       PTCLDY    46  38  74 SE3       29.83S
FALLS CITY     CLEAR     50  43  77 S10       29.86R

...NORTHERN KANSAS...

CITY           SKY/WX    TMP DP  RH WIND       PRES   REMARKS
GOODLAND       CLOUDY    48  34  58 S20       29.72S
HILL CITY      PTCLDY    50  43  77 S8        29.80R
NORTON         SUNNY     48  37  66 S8        29.77R
PHILLIPSBURG   CLEAR     52  43  71 S8        29.80R
SMITH CENTER   CLEAR     48  45  87 S9        29.82R
HAYS           CLOUDY    46  44  93 S6        29.83R
RUSSELL        CLOUDY    49  46  90 S14       29.81R
CONCORDIA      PTCLDY    53  48  83 S21       29.82R
SALINA         PTCLDY    51  47  86 S10       29.84R
TOPEKA         PTCLDY    49  45  86 CALM      29.89R



USA.gov is the U.S. government's official web portal to all federal, state and local government web resources and services.